Location: Horowhenua
(40.7500°S, 175.3333°E)
Time: 12:28:30
(UTC+00:00)

SL-24 DEB - Visible Passes

Search period start: 22 September 2023 00:00
Search period end: 02 October 2023 00:00
Orbit: 658 x 688 km, 92.0° (Epoch: 21 September)

Date Brightness Start Highest point End Pass type
(mag) Time Alt. Az. Time Alt. Az. Time Alt. Az.
22 Sep 5.0 15:37:36 10° SSE 15:42:07 50° E 15:43:12 41° NE visible
22 Sep 5.8 17:16:48 10° SW 17:19:31 16° WSW 17:21:29 12° W visible
23 Sep 7.1 14:36:10 10° ESE 14:37:47 12° E 14:38:56 11° E visible
23 Sep 4.1 16:11:30 10° S 16:16:06 65° W 16:17:11 48° NW visible
24 Sep 6.0 15:08:07 10° SSE 15:12:07 28° E 15:12:55 26° ENE visible
24 Sep 5.2 16:46:00 10° SSW 16:49:52 27° WSW 16:51:11 23° WNW visible
25 Sep 4.4 15:41:34 10° S 15:46:13 69° E 15:46:54 59° NE visible
25 Sep 6.1 17:21:52 10° SW 17:23:26 12° WSW 17:24:59 10° W visible
26 Sep 6.8 14:39:06 10° SE 14:41:59 16° E 14:42:38 16° E visible
26 Sep 4.4 16:15:39 10° S 16:20:07 47° W 16:20:54 42° WNW visible
27 Sep 5.4 15:11:52 10° SSE 15:16:13 38° E 15:16:38 37° ENE visible
27 Sep 5.6 16:50:24 10° SSW 16:53:47 20° WSW 16:54:54 19° W visible
28 Sep 4.1 15:45:33 10° S 15:50:13 86° W 15:50:38 74° NNW visible
29 Sep 6.4 14:42:30 10° SE 14:46:06 22° E 14:46:23 22° E visible
29 Sep 4.8 16:19:48 10° SSW 16:24:01 35° WSW 16:24:39 33° W visible
30 Sep 4.9 15:15:40 10° SSE 15:20:14 52° E 15:20:23 52° E visible
30 Sep 5.9 16:54:57 10° SW 16:57:36 15° WSW 16:58:39 14° W visible
01 Oct 7.0 14:13:58 10° ESE 14:15:51 12° E 14:16:08 12° E visible
01 Oct 4.1 15:49:31 10° S 15:54:09 63° W 15:54:23 62° W visible
